Regional Weather Roundup
Issued by NWS

Home | Current Version | Previous Version | Graphics & Text | Print | Product List | Glossary On
Versions: 1 2 3 4 5 6 7 8 9 10 11 12 13 14 15 16 17 18 19 20 21 22 23 24 25 26 27 28 29 30 31 32 33 34 35 36 37 38 39 40 41 42 43 44 45 46 47 48 49 50
000
ASUS43 KLMK 190310
RWRKY
KENTUCKY REGIONAL WEATHER ROUNDUP
NATIONAL WEATHER SERVICE LOUISVILLE KY
1100 PM EDT WED OCT 18 2017

NOTE "FAIR" INDICATES FEW OR NO CLOUDS BELOW 12,000 FEET
WITH NO SIGNIFICANT WEATHER AND/OR OBSTRUCTIONS TO VISIBILITY.

KYZ001>023-026-027-061>063-070>075-190400-
WESTERN AND SOUTH CENTRAL KENTUCKY

CITY           SKY/WX    TMP DP  RH WIND       PRES   REMARKS
PADUCAH        CLEAR     59  46  62 S8        30.17F
HENDERSON      CLEAR     54  47  77 S6        30.20S
OWENSBORO      CLEAR     54  46  74 S5        30.21R
HOPKINSVILLE   CLEAR     58  46  64 S7        30.20F
BOWLING GREEN  CLEAR     53  47  79 CALM      30.23S
GLASGOW        CLEAR     47  47 100 CALM      30.23S
$$

KYZ024-025-028>034-038-045-046-053-190400-
NORTH CENTRAL KENTUCKY

CITY           SKY/WX    TMP DP  RH WIND       PRES   REMARKS
LOUISVILLE/SDF CLEAR     56  47  71 SE5       30.21S
LOUISVILLE/LOU CLEAR     54  48  80 SE3       30.22S
FORT KNOX      CLEAR     50  45  82 CALM      30.20S
$$

KYZ035>037-039>044-047>052-055>060-089>105-190400-
NORTHEAST KENTUCKY

CITY           SKY/WX    TMP DP  RH WIND       PRES   REMARKS
LEXINGTON      CLEAR     54  45  71 S7        30.23S
COVINGTON      CLEAR     53  46  77 S7        30.20S
FRANKFORT      CLEAR     50  43  77 SW3       30.21S
$$

KYZ054-064>069-076>088-106>120-190400-
SOUTHEAST KENTUCKY

CITY           SKY/WX    TMP DP  RH WIND       PRES   REMARKS
JACKSON        CLEAR     55  44  66 CALM      30.26R
LONDON         CLEAR     49  46  90 CALM      30.26S
SOMERSET       CLEAR     46  46 100 CALM      30.28R
MIDDLESBORO    CLEAR     47  46  99 CALM      30.29F
MONTICELLO     CLEAR     44  42  93 W10       30.28S
$$





USA.gov is the U.S. government's official web portal to all federal, state and local government web resources and services.